Date,TemperatureHighF,TemperatureAvgF,TemperatureLowF,DewpointHighF,DewpointAvgF,DewpointLowF,HumidityHigh,HumidityAvg,HumidityLow,PressureMaxIn,PressureMinIn,WindSpeedMaxMPH,WindSpeedAvgMPH,GustSpeedMaxMPH,PrecipitationSumIn
2013-3-1,37.5,35.1,32.5,34.0,29.8,28.0,97,81,70,29.61,29.45,9,2,15,0.01
2013-3-2,38.9,33.6,28.8,29.0,26.8,25.0,88,77,64,29.60,29.55,9,2,16,0.00
2013-3-3,37.2,31.0,26.5,28.0,25.5,23.0,87,80,70,29.58,29.50,9,2,17,0.03
2013-3-4,34.2,29.3,26.1,26.0,22.7,21.0,81,76,68,29.70,29.51,16,5,27,0.00
2013-3-5,43.5,33.4,26.2,32.0,26.3,21.0,94,76,55,30.01,29.71,6,1,16,0.00
2013-3-6,36.4,34.3,32.0,33.0,30.1,27.0,94,85,73,30.12,30.01,11,2,19,0.02
2013-3-7,34.5,31.8,30.6,31.0,27.7,25.0,100,85,72,30.10,30.01,9,2,13,0.03
2013-3-8,43.2,34.3,27.7,31.0,27.5,22.0,94,77,50,30.14,29.95,3,0,9,0.16
2013-3-9,56.5,39.0,25.5,27.0,23.2,20.0,90,58,24,30.28,30.12,5,1,10,0.00
2013-3-10,47.3,34.3,19.7,31.0,26.0,18.0,95,74,48,30.33,30.20,7,1,11,0.00
2013-3-11,49.2,38.8,31.5,33.0,31.1,29.0,93,76,46,30.23,30.04,6,1,13,0.00
2013-3-12,48.5,40.7,33.5,48.0,39.9,31.0,99,96,90,30.04,29.62,5,0,11,1.05
2013-3-13,45.7,39.4,27.5,43.0,31.7,25.0,98,75,48,29.69,29.63,8,2,16,0.00
2013-3-14,32.8,27.8,18.6,26.0,17.8,6.0,93,67,49,29.76,29.60,13,3,21,0.00
2013-3-15,36.2,25.2,15.6,29.0,14.6,4.0,95,66,39,29.77,29.54,12,2,19,0.00
2013-3-16,32.3,26.8,19.7,23.0,15.6,11.0,82,64,45,29.80,29.61,7,1,14,0.05
2013-3-17,29.7,22.8,13.6,14.0,8.9,2.0,89,58,38,30.25,29.81,15,3,22,0.00
2013-3-18,36.4,23.1,8.5,23.0,5.6,1.0,81,50,27,30.38,30.17,5,1,9,0.00
2013-3-19,31.8,28.3,24.4,30.0,26.4,22.0,95,92,84,30.17,29.65,5,1,18,0.04
2013-3-20,34.4,16.2,23.7,23.0,-31.9,-99.9,94,42,60,29.68,29.59,10,-442,17,0.25
2013-3-21,39.1,13.7,9.2,20.0,-49.6,-99.9,94,24,36,29.69,29.51,6,-564,12,0.24
2013-3-22,36.9,14.0,25.7,22.0,-50.2,-99.9,76,23,44,29.62,29.53,5,-580,13,0.00
2013-3-23,38.4,13.7,30.2,24.0,-53.2,-99.9,73,22,47,29.68,29.54,14,-612,26,0.00
2013-3-24,42.2,14.8,34.1,25.0,-52.7,-99.9,69,21,49,29.76,29.67,17,-618,19,0.00
2013-3-25,42.7,15.4,20.9,29.0,-47.7,-99.9,95,28,54,29.71,29.48,10,-587,13,0.00
2013-3-26,46.6,17.7,33.8,30.0,-50.0,-99.9,85,19,35,29.70,29.50,9,-591,18,0.00
2013-3-27,46.9,17.9,37.3,30.0,-49.1,-99.9,60,20,46,29.80,29.67,14,-598,21,0.00
2013-3-28,45.6,2.9,44.5,32.0,-91.5,-99.9,61,4,60,29.93,29.80,4,-935,10,0.00
2013-3-29,49.6,20.1,44.2,38.0,-42.0,-99.9,75,27,55,29.96,29.90,8,-558,14,0.00
2013-3-30,51.9,20.5,43.0,29.0,-48.6,-99.9,57,15,28,30.01,29.93,8,-581,15,0.00
2013-3-31,48.4,3.9,39.5,27.0,-88.8,-99.9,61,4,37,30.02,29.71,5,-910,7,0.00